Location: Peebles
(55.6412°N, 3.1714°W)
Time: 02:29:53
(UTC+01:00)

FENGYUN 1C DEB - Pass Details

Date: 11 July 2022
Orbit: 835 x 1174 km, 99.6° (Epoch: 12 August)

Event Time Altitude Azimuth Distance (km) Brightness Sun altitude
Rises 23:02:12 0° 187° (S) 3,853 ? -7.1°
Reaches altitude 10° 23:05:00 10° 195° (SSW) 2,853 ? -7.3°
Maximum altitude 23:10:55 38° 262° (W) 1,459 ? -7.8°
Drops below altitude 10° 23:16:27 10° 331° (NNW) 2,654 ? -8.1°
Sets 23:18:59 0° 339° (NNW) 3,556 ? -8.3°
